Louisville Bowman, KY

4:39 AM EDT on October 21, 2019 (GMT -0400)
Bowman

Weather History for KLOU - May, 2019

Change the Weather History Date:

Thursday, May 23, 2019

  Actual Average Record
Temperature  
Mean Temperature 81 °F 68 °F  
Max Temperature 89 °F 78 °F 90 °F (1975)
Min Temperature 72 °F 58 °F 40 °F (1963)
Degree Days  
Heating Degree Days 0 1  
Month to date heating degree days 47 66  
Since 1 July heating degree days 4101 4257  
Cooling Degree Days 16 5  
Month to date cooling degree days 87 68  
Year to date cooling degree days 104 102  
Growing Degree Days 30 (Base 50)    
Moisture  
Dew Point 67 °F    
Average Humidity 70    
Maximum Humidity 87    
Minimum Humidity 52    
Precipitation  
Precipitation 0.12 in 0.14 in 1.82 in (2011)
Month to date precipitation 2.85 3.93  
Year to date precipitation 26.26 18.73  
Sea Level Pressure  
Sea Level Pressure 30.09 in    
Wind  
Wind Speed 8 mph (SSW)    
Max Wind Speed 23 mph    
Max Gust Speed 32 mph    
Visibility 10 miles    
Events Rain    
T = Trace of Precipitation, MM = Missing Value Source: NWS Daily Summary

Daily Weather History Graph

Daily Weather History Graph

Search for Another Location

Airport or City:

Astronomy

May. 23, 2019 Rise Set
Actual Time 6:25 AM EDT 8:53 PM EDT
Civil Twilight 5:55 AM EDT 9:23 PM EDT
Nautical Twilight 5:18 AM EDT 10:01 PM EDT
Astronomical Twilight 4:36 AM EDT 10:43 PM EDT
Moon 12:35 AM EDT (5/23) 10:28 AM EDT (5/23)
Length of Visible Light 15h 28m
Length of Day
14h 27m
Waning Gibbous, 77% of the Moon is Illuminated
May 23
Waning Gibbous
May 26
Last Quarter
Jun 3
New
Jun 10
First Quarter
Jun 17
Full

Hourly Weather History & Observations

Time (EDT) Temp. Heat Index Dew Point Humidity Pressure Visibility Wind Dir Wind Speed Gust Speed Precip Events Conditions
12:53 AM 73.9 °F - 68.0 °F 82% 30.03 in 10.0 mi South 3.5 mph - N/A   Overcast
1:53 AM 73.9 °F - 66.9 °F 79% 30.04 in 10.0 mi South 3.5 mph - N/A   Overcast
2:53 AM 73.9 °F - 64.9 °F 73% 30.03 in 10.0 mi SSE 5.8 mph - N/A   Clear
3:53 AM 73.9 °F - 64.0 °F 71% 30.04 in 10.0 mi South 4.6 mph - N/A   Mostly Cloudy
4:53 AM 75.0 °F - 61.0 °F 62% 30.06 in 10.0 mi SW 5.8 mph - N/A   Partly Cloudy
5:53 AM 75.0 °F - 61.0 °F 62% 30.06 in 10.0 mi SW 6.9 mph - N/A   Clear
6:53 AM 75.0 °F - 62.1 °F 64% 30.09 in 10.0 mi SSW 8.1 mph - N/A   Partly Cloudy
7:53 AM 75.9 °F - 63.0 °F 64% 30.11 in 10.0 mi SSW 9.2 mph - N/A   Mostly Cloudy
8:53 AM 75.9 °F - 63.0 °F 64% 30.12 in 10.0 mi SSW 9.2 mph - N/A   Partly Cloudy
9:26 AM 75.0 °F - 63.0 °F 66% 30.18 in 10.0 mi NNW 6.9 mph - N/A   Mostly Cloudy
9:46 AM 73.9 °F - 64.0 °F 71% 30.17 in 8.0 mi NNE 5.8 mph - 0.02 in Rain Light Rain
9:53 AM 72.0 °F - 64.0 °F 76% 30.17 in 6.0 mi ENE 4.6 mph - 0.05 in Rain Light Rain
10:53 AM 75.0 °F - 66.9 °F 76% 30.15 in 10.0 mi SE 8.1 mph - 0.00 in   Mostly Cloudy
11:53 AM 81.0 °F 83.8 °F 68.0 °F 65% 30.13 in 10.0 mi South 10.4 mph - N/A   Clear
12:53 PM 84.0 °F 88.4 °F 70.0 °F 63% 30.11 in 10.0 mi SSW 15.0 mph - N/A   Clear
1:53 PM 87.1 °F 92.8 °F 71.1 °F 59% 30.09 in 10.0 mi SW 12.7 mph - N/A   Scattered Clouds
2:53 PM 89.1 °F 93.7 °F 69.1 °F 52% 30.06 in 10.0 mi WSW 19.6 mph 31.1 mph 0.00 in   Partly Cloudy
3:53 PM 86.0 °F 89.4 °F 68.0 °F 55% 30.06 in 10.0 mi SW 15.0 mph 24.2 mph N/A   Scattered Clouds
4:53 PM 78.1 °F - 70.0 °F 76% 30.06 in 10.0 mi WSW 6.9 mph - 0.06 in   Overcast
5:53 PM 84.9 °F 90.1 °F 71.1 °F 63% 30.05 in 10.0 mi SW 6.9 mph - 0.01 in   Partly Cloudy
6:53 PM 86.0 °F 90.7 °F 70.0 °F 59% 30.04 in 10.0 mi SW 8.1 mph - N/A   Mostly Cloudy
7:53 PM 84.9 °F 89.4 °F 70.0 °F 61% 30.05 in 10.0 mi SW 8.1 mph - N/A   Scattered Clouds
8:53 PM 78.1 °F - 69.1 °F 74% 30.07 in 10.0 mi South 8.1 mph - N/A   Scattered Clouds
9:53 PM 75.9 °F - 69.1 °F 79% 30.08 in 10.0 mi SW 5.8 mph - N/A   Clear
10:53 PM 75.9 °F - 69.1 °F 79% 30.09 in 10.0 mi South 3.5 mph - N/A   Partly Cloudy
11:53 PM 73.9 °F - 69.1 °F 85% 30.09 in 10.0 mi Calm Calm - N/A   Clear